Regional Weather Roundup
Issued by NWS

Home | Current Version | Previous Version | Text Only | Print | Product List | Glossary On
Versions: 1 2 3 4 5 6 7 8 9 10 11 12 13 14 15 16 17 18 19 20 21 22 23 24 25 26 27 28 29 30 31 32 33 34 35 36 37 38 39 40 41 42 43 44 45 46 47 48 49 50
000
ASUS45 KPSR 230110
RWRAZ

ARIZONA HOURLY REGIONAL WEATHER ROUNDUP
NATIONAL WEATHER SERVICE PHOENIX AZ
600 PM MST WED MAR 22 2017

NOTE: FAIR INDICATES FEW OR NO CLOUDS BELOW 12,000 FEET WITH NO
SIGNIFICANT WEATHER AND/OR OBSTRUCTIONS TO VISIBILITY.

AZZ001>003-036-230200-
NORTHWEST ARIZONA

CITY           SKY/WX    TMP DP  RH WIND       PRES   REMARKS
BULLHEAD CITY  CLOUDY    66  50  55 SE9       29.79R
KINGMAN        RAIN      50  46  86 SW21      29.92R FOG
$$

AZZ004>008-015-016-018-230200-
NORTH CENTRAL ARIZONA

CITY           SKY/WX    TMP DP  RH WIND       PRES   REMARKS
GRAND CANYON   CLOUDY    47  43  86 S15G25    29.91F THUNDER
WILLIAMS       CLOUDY    48  41  76 SW13G18   29.94F
PRESCOTT       MOCLDY    57  41  55 S16       29.90F
FLAGSTAFF      CLOUDY    48  37  65 S8        29.96F
PAYSON         CLOUDY    63  39  42 SW7       29.97F
PAGE           LGT RAIN  61  32  33 W5        29.81R
$$

AZZ009>014-017-230200-
NORTHEAST ARIZONA

CITY           SKY/WX    TMP DP  RH WIND       PRES   REMARKS
WINSLOW        PTCLDY    66  22  18 S22G30    29.90R
SAINT JOHNS    MOCLDY    68  19  15 SW10      29.92F
WINDOW ROCK    CLOUDY    62  17  17 SW17G24   29.98F
SHOW LOW       CLOUDY    59  19  21 S17G25    30.00S
$$

AZZ023-230200-
GREATER PHOENIX AREA

CITY           SKY/WX    TMP DP  RH WIND       PRES   REMARKS
PHOENIX        MOCLDY    79  47  32 W10       29.78F
BUCKEYE        CLEAR     75  46  35 SW10      29.81S
GLENDALE       MOCLDY    79  46  31 SW8       29.80F
LUKE AFB       PTCLDY    78  47  33 SW10      29.79F
DEER VALLEY    PTCLDY    76  47  35 SW10      29.79F
SCOTTSDALE     MOCLDY    77  47  34 SW8       29.81F
MESA-FALCON    PTCLDY   N/A N/A N/A NW6       29.77
MESA-GATEWAY   MOCLDY    79  48  34 W8        29.80F
CHANDLER       CLEAR     79  48  34 W7        29.79F
$$

AZZ027-028-230200-
SOUTHWEST MARICOPA COUNTY AND PINAL COUNTY

CITY           SKY/WX    TMP DP  RH WIND       PRES   REMARKS
CASA GRANDE    NOT AVBL
GILA BEND      MOCLDY    79  47  32 W12       29.79S
$$

AZZ503-504-507>509-230200-
SOUTHEAST ARIZONA

CITY           SKY/WX    TMP DP  RH WIND       PRES   REMARKS
TUCSON         PTCLDY    81  24  12 SW14      29.88F
DAVIS-MONTHAN  PTCLDY    81  25  12 SW14      29.87F
RYAN FIELD     CLEAR     81  25  12 S18G26    29.88S
NOGALES        PTCLDY    76  25  15 SW15G26   29.96S
SIERRA VISTA   PTCLDY    74  20  13 SW21      29.99S
DOUGLAS        PTCLDY    78  13   8 SW21G32   29.95S
SAFFORD        PTCLDY    80  27  14 NW10      29.83S
$$

AZZ020-021-025-026-031-230200-
SOUTHWEST ARIZONA

CITY           SKY/WX    TMP DP  RH WIND       PRES   REMARKS
YUMA           PTSUNNY   65  52  62 NW10      29.88S
$$

CAZ031-033-041-043-047-048-061-230200-
SOUTHERN CALIFORNIA

CITY           SKY/WX    TMP DP  RH WIND       PRES   REMARKS
DOWNTOWN L.A.  SUNNY     64  52  64 W9G20     29.95S
L.A. AIRPORT   MOSUNNY   61  55  81 SW23      29.96S
SAN DIEGO      PTSUNNY   64  51  62 W14       30.02S
BURBANK        SUNNY     64  43  46 W13       29.94R
ONTARIO        PTSUNNY   62  47  57 W15G24    29.93S
RIVERSIDE      MOSUNNY   63  47  55 W18G25    29.93R
PALM SPRINGS   MOSUNNY   73  33  23 NW13G23   29.82F
EL CENTRO NAS  PTSUNNY   70  37  29 W26       29.87S
IMPERIAL       CLOUDY    70  44  39 W24G31    29.84F
BLYTHE         LGT RAIN  69  46  43 SW15      29.82F
NEEDLES        CLOUDY    73  37  27 W8        29.78F
$$

NVZ020-UTZ003-230200-
SOUTHERN NEVADA-UTAH

CITY           SKY/WX    TMP DP  RH WIND       PRES   REMARKS
LAS VEGAS      CLOUDY    68  15  13 SW15G24   29.75S
SALT LAKE CITY CLOUDY    56  43  61 NW3       29.76F
$$

NMZ009-TXZ055-230200-
NEW MEXICO-WEST TEXAS

CITY           SKY/WX    TMP DP  RH WIND       PRES   REMARKS
ALBUQUERQUE    MOCLDY    77   8   7 S30G38    29.91R
EL PASO        FAIR      87   6   4 W13       29.88F
$$


........................KEY........................
SKY/WX - SKY CONDITION/WEATHER
TMP    - TEMPERATURE IN FAHRENHEIT
DP     - DEW POINT IN FAHRENHEIT
RH     - RELATIVE HUMIDITY IN PERCENT
WIND   - DIRECTION AND SPEED IN MILES PER HOUR (MPH)
VRB    - VARIABLE WIND DIRECTION
PRES   - MEAN SEA LEVEL PRESSURE IN INCHES OF MERCURY
         F - FALLING PRESSURE   R - RISING PRESSURE
         S - STEADY PRESSURE
VSB    - VISIBILITY IN MILES
HX     - HEAT INDEX IN FAHRENHEIT
WCI    - WIND CHILL INDEX IN FAHRENHEIT
TC     - TEMPERATURE IN CELSIUS WHICH IS ALSO KNOWN AS
         TEMPERATURE IN CENTIGRADE
AFB    - AIR FORCE BASE
         LUKE AFB IS LUKE AIR FORCE BASE
         DAVIS-MONTHAN IS DAVIS-MONTHAN AIR FORCE BASE
NAS    - NAVAL AIR STATION
         EL CENTRO NAS IS EL CENTRO NAVAL AIR STATION
N/A    - NOT AVAILABLE




USA.gov is the U.S. government's official web portal to all federal, state and local government web resources and services.